sat.trackr.live / text

‹ back to catalog

STARLINK-36508

NORAD 67410 · 2026-005G

PAYLOAD ACTIVE UNKNOWN

§ Identity

Operator
Country
US
Launch date
2026-01-12
Launch site
AFETR
Launch vehicle
Mass (kg)
RCS (m²)

Purposes: comms

External: N2YO · Heavens-Above · Gunter

§ Orbital elements

Epoch: 2026-09-19T07:24:12.413664Z

Period
94.27 min
Inclination
42.9998°
Eccentricity
0.0001430
Mean motion
15.27594194 rev/d
Perigee alt
482.0 km
Apogee alt
484.0 km
Semi-major
6,861.1 km
B*
6.0507e-4
RAAN
224.9068°
Arg perigee
270.8109°
Mean anomaly
89.2579°
Rev number
3,830

§ Raw data

STARLINK-365081 67410U 26005G   26262.30847701  .00016432  00000+0  60507-3 0  99952 67410  42.9998 224.9068 0001430 270.8109  89.2579 15.27594194 38308

JSON: /api/v1/satellites/67410 · /tle

For live sub-satellite position, see the globe view (requires WebGL).

§ Visibility from observer

Set your observer location to see the next 7 days of passes ≥ 10°. The values pass through the URL so the page stays shareable.

No JS? Fill the form by hand. The geolocation button needs JavaScript.